Wind_Speed
41 46 40 31 24 22 17 22 15 4 7 14 11 25 21 19 16 12 8 5 4 3 3 3 2 3 5 5 6 7 8 10 11 12 13 15 16 16
41 45 42 35 28 23 21 21 22 13 4 10 17 22 26 21 18 13 9 6 4 3 2 2 3 3 5 6 6 8 9 11 12 13 14 14 15 16
41 44 43 37 31 26 23 24 24 17 7 8 16 18 26 23 20 14 10 6 5 5 4 2 4 5 5 5 7 10 12 13 13 14 14 15 16 18
40 39 39 36 33 30 27 26 26 24 13 14 16 20 24 23 18 13 10 7 7 6 5 5 6 5 4 6 9 12 12 13 14 14 15 15 17 18
40 39 40 38 34 32 30 29 28 27 22 18 13 21 23 23 18 14 11 9 9 8 8 7 7 7 8 9 10 12 15 14 14 15 15 17 17 19
36 39 39 39 39 37 34 32 30 28 21 21 16 25 24 22 18 16 12 10 10 9 9 7 7 8 11 11 12 12 11 14 15 15 15 15 15 17
33 34 36 37 38 37 36 33 31 29 25 25 20 19 18 19 19 13 12 11 8 10 10 7 8 11 10 12 12 14 13 11 11 11 13 16 19 21
29 29 30 32 33 31 32 30 31 32 28 21 16 20 18 17 17 15 12 7 3 6 6 7 10 10 11 11 14 15 10 6 11 13 17 20 21 22
29 28 25 23 25 25 23 24 25 24 26 26 28 23 19 18 18 15 12 7 5 4 6 8 8 11 11 14 15 9 5 10 15 19 20 20 22 23
27 27 28 28 28 28 29 28 23 20 19 16 15 12 11 13 11 9 8 5 4 6 5 4 6 11 18 16 6 5 6 17 18 21 21 24 23 23
26 26 28 30 32 36 37 33 27 20 14 12 12 12 11 12 11 9 7 5 3 3 4 4 3 11 17 12 4 2 19 19 19 21 23 22 21 22
24 25 29 34 35 35 36 36 30 24 20 17 15 13 12 12 10 7 6 7 4 2 3 3 4 5 6 9 7 21 21 22 22 24 21 19 23 26
30 32 30 32 33 33 33 31 25 22 20 15 16 16 14 10 9 9 8 7 7 7 4 3 4 8 4 7 17 20 19 28 28 23 21 26 26 26
32 31 36 36 34 32 27 20 19 21 19 21 20 18 15 13 11 8 5 5 5 6 6 7 5 9 13 11 11 16 28 28 23 17 27 27 28 30
29 32 36 33 30 26 22 21 23 23 25 22 21 18 16 12 10 6 4 4 6 7 7 6 8 11 13 12 12 22 21 21 14 24 28 29 32 34
32 35 33 29 26 22 22 24 23 24 23 22 19 15 14 12 9 7 5 4 7 6 5 6 8 12 15 17 18 23 25 14 26 29 30 31 33 32
33 31 29 29 27 25 26 25 21 21 20 19 17 18 17 14 11 9 7 5 5 7 10 8 9 13 15 18 21 21 19 24 27 30 30 31 30 30
30 28 24 25 24 24 24 24 23 21 19 17 18 19 19 17 14 11 8 6 8 8 9 11 12 15 11 14 12 13 18 24 28 30 30 27 31 34
20 21 22 22 21 20 21 24 20 21 17 18 19 19 17 16 13 12 9 7 8 9 8 9 12 11 4 2 14 10 16 27 29 30 29 27 30 39
22 22 21 22 22 21 22 23 21 19 19 21 20 18 17 16 14 12 10 8 9 9 11 9 10 11 8 6 11 27 21 24 25 28 30 30 31 32
20 21 22 21 22 22 22 21 20 21 21 22 20 18 18 15 12 10 9 9 8 9 12 14 12 10 16 18 13 17 27 23 20 22 29 27 26 31
20 19 18 18 19 20 20 21 21 21 21 20 18 18 15 13 11 11 11 10 10 10 13 15 13 13 14 10 18 23 27 29 28 25 25 21 23 13
16 15 16 17 18 20 20 22 21 20 19 18 17 15 14 14 12 11 10 9 8 9 11 15 15 14 15 17 18 21 26 30 28 34 34 31 23 27
Wind_Direction
199 206 204 200 200 203 209 189 152 167 205 194 186 206 205 206 209 212 222 246 268 265 242 257 293 320 318 329 333 323 327 327 330 328 323 321 320 320
201 208 210 206 203 203 206 204 201 171 152 184 195 195 199 202 206 211 224 237 248 242 236 258 298 316 303 312 312 320 314 311 317 318 316 320 319 317
204 210 212 210 205 201 203 204 203 194 140 182 196 192 193 198 199 206 218 229 232 225 232 261 292 305 312 306 308 317 311 307 307 313 312 314 315 312
208 210 213 209 208 206 204 205 208 210 189 159 179 178 192 191 199 205 214 223 234 229 251 256 273 287 289 294 307 310 308 310 310 310 310 311 308 309
211 211 214 210 208 206 208 210 212 210 207 185 158 176 180 187 190 203 215 219 224 228 251 273 277 274 281 299 306 304 304 309 311 309 310 308 307 308
215 214 215 212 214 214 214 214 210 200 193 180 161 164 172 183 193 201 204 214 218 237 254 272 270 291 301 297 303 309 316 315 314 313 310 310 311 312
214 214 216 216 218 218 211 208 201 189 179 167 150 160 166 175 192 199 207 212 227 252 262 232 261 299 298 304 310 316 319 322 327 325 318 312 312 312
209 209 211 212 212 212 212 206 200 185 173 159 161 158 171 182 187 195 194 202 230 222 238 264 299 304 305 310 317 314 320 336 330 331 325 315 312 309
207 202 197 199 200 193 189 183 182 183 184 177 170 173 171 194 201 189 198 200 213 237 275 297 304 303 306 313 316 317 320 334 330 328 327 323 313 308
205 199 193 183 185 178 167 163 159 159 158 152 162 183 197 181 191 200 197 199 239 256 254 261 294 302 316 326 329 337 318 324 325 327 322 317 313 311
189 189 189 179 177 177 165 150 145 139 139 142 142 149 150 161 174 173 175 197 246 248 232 271 289 323 321 318 331 322 325 329 327 326 325 324 319 316
173 179 187 180 172 173 166 156 145 149 149 147 139 142 156 158 167 187 204 199 215 282 213 285 300 355 318 305 292 316 331 336 329 333 330 327 322 319
159 162 166 170 170 173 170 162 160 160 161 154 165 164 166 172 184 191 188 201 216 237 238 263 265 310 259 280 297 315 329 332 335 333 336 330 324 318
158 157 156 163 165 161 159 161 161 159 167 167 167 171 180 181 183 186 204 222 232 249 256 263 258 280 280 282 288 307 322 324 326 319 327 325 323 326
156 154 151 152 153 159 163 154 159 168 169 170 179 190 197 190 182 182 213 236 258 277 282 276 281 280 270 262 274 302 312 315 313 323 326 325 322 323
151 153 154 155 165 160 154 162 171 176 173 182 189 188 181 183 182 185 198 247 289 285 256 288 300 292 289 289 296 297 307 298 314 326 328 323 321 314
153 150 150 153 155 156 163 169 163 170 178 186 185 178 176 182 184 200 205 211 246 288 303 300 299 294 292 292 289 294 301 309 321 323 324 313 309 310
155 154 156 156 156 159 163 168 178 180 182 185 183 183 183 182 190 201 218 239 278 290 292 316 322 329 314 311 284 277 305 308 317 322 322 307 311 318
161 154 151 151 153 161 170 176 175 186 183 186 187 191 185 184 194 206 221 249 268 274 295 308 324 325 329 301 299 288 287 313 318 316 315 305 300 309
155 149 144 155 167 171 179 186 189 189 192 193 194 194 191 194 198 212 222 234 260 272 289 297 309 314 277 272 295 297 319 311 311 302 305 310 305 307
143 145 161 171 178 188 194 197 201 201 201 200 200 200 200 204 214 220 221 237 247 264 284 295 318 310 293 290 280 293 317 323 308 298 309 310 309 313
160 168 178 189 193 195 198 202 201 199 199 200 203 202 206 220 225 227 232 228 240 261 284 301 310 308 305 291 297 305 309 321 327 329 326 308 291 294
171 182 185 193 198 198 198 196 199 201 203 205 201 206 214 222 230 230 225 237 250 264 284 302 307 309 312 310 301 295 309 319 320 327 325 333 315 298
Height
784 791 795 800 804 809 812 815 821 836 838 838 841 845 848 852 854 856 857 858 858 859 859 860 860 860 860 859 857 858 857 856 854 852 850 848 846 845
777 784 790 796 801 805 809 812 815 819 829 832 835 838 843 847 850 853 855 856 857 857 857 858 858 857 858 856 856 855 853 853 851 849 847 845 844 841
770 777 784 791 796 801 804 808 812 815 820 829 831 834 838 843 847 850 852 853 855 854 854 855 854 856 855 855 854 852 852 850 848 846 843 841 840 839
764 772 779 786 791 795 799 803 807 810 814 821 826 830 835 841 845 848 850 850 853 853 852 851 851 851 852 852 849 849 849 846 844 842 840 838 836 834
757 765 773 778 785 789 793 797 801 805 808 812 819 825 831 837 841 845 846 846 849 849 849 848 849 848 848 847 846 845 845 841 840 839 836 835 833 829
753 760 764 769 776 780 785 790 796 801 804 808 813 820 827 834 836 841 842 844 846 845 846 844 846 847 846 845 842 841 840 840 837 835 833 832 829 826
749 753 758 764 769 773 778 784 790 796 801 805 810 817 823 829 832 835 838 841 840 842 841 840 842 843 843 842 840 838 835 834 834 832 830 828 825 823
744 750 756 760 765 771 775 781 787 791 798 802 809 813 818 825 827 832 834 837 838 837 839 839 838 840 839 837 837 833 832 831 830 827 824 822 821 818
742 746 753 758 764 769 775 781 788 793 796 799 805 810 815 820 824 826 829 832 835 837 837 835 835 836 835 834 832 829 830 829 828 823 820 818 815 812
739 742 746 753 760 765 773 779 787 795 799 801 807 810 814 818 822 826 829 831 833 834 834 833 832 834 834 831 827 826 829 826 823 819 816 813 810 806
734 738 745 751 757 764 769 777 786 794 799 803 806 809 813 816 819 822 826 830 832 833 833 833 832 832 829 826 825 825 826 824 820 816 812 808 806 801
731 738 744 750 758 763 767 774 784 791 796 804 805 808 813 815 816 820 823 826 830 831 831 834 831 831 829 822 822 822 821 819 815 810 807 805 803 797
729 736 744 752 757 763 769 775 780 787 794 795 803 808 811 815 816 818 818 821 824 827 830 829 826 830 829 825 820 817 815 812 810 805 803 801 797 795
724 734 741 749 757 764 770 776 780 784 790 797 802 806 809 810 814 816 818 819 821 825 827 825 824 824 824 822 819 816 814 809 806 803 799 796 792 787
727 733 741 749 758 765 770 773 778 784 788 794 800 805 808 811 812 813 818 819 821 824 825 824 823 823 819 815 813 809 809 805 803 798 794 790 785 779
729 740 746 752 759 765 771 775 775 782 786 792 798 802 806 811 812 814 815 817 822 823 822 823 824 823 818 813 808 804 804 805 797 792 789 784 779 773
730 738 745 751 758 764 768 773 775 781 785 792 794 798 801 807 809 814 813 811 812 816 820 821 818 819 815 811 805 801 799 797 792 788 783 777 771 765
732 736 743 748 755 761 766 770 775 778 784 789 793 796 797 800 807 811 811 810 813 809 814 814 815 811 810 804 801 799 796 792 788 783 779 772 760 757
732 737 742 747 754 762 766 770 774 778 781 788 791 796 796 798 804 806 807 808 807 809 810 812 810 810 808 806 801 798 794 788 783 778 774 769 760 749
735 739 741 748 755 761 767 771 776 778 782 785 790 793 793 796 799 802 802 802 804 806 807 807 807 807 805 804 799 792 790 785 780 775 767 760 754 745
735 736 742 750 756 760 766 771 775 778 781 785 787 788 792 793 797 796 796 799 801 801 802 803 802 803 802 799 794 787 782 782 777 771 764 757 748 737
735 740 745 751 755 760 764 768 774 778 779 782 784 787 788 790 792 792 794 794 796 798 798 798 799 799 796 793 788 783 777 772 770 764 761 758 751 740
737 741 745 750 755 759 763 767 771 774 778 781 782 782 785 787 789 789 790 791 793 795 796 795 795 793 791 789 785 780 774 767 759 751 747 746 741 737